CW6573 Weather Reports


time (UTC)temp
F
wind
direction
speed
knots
gust
knots
rain 1hr
in
rain 24hr
in
rain mn
in
humidity
%
barometer
mb
20260503072521 67 338 4.3 7.8 0.03 0.39 0.04 94 1015.3
20260503072019 67 321 3.5 9.6 0.04 0.39 0.04 94 1015.3
20260503071603 67 300 5.2 9.6 0.04 0.39 0.04 93 1015.4
20260503071016 67 302 4.3 8.7 0.04 0.39 0.04 93 1015.6
20260503070518 68 328 3.5 7.0 0.04 0.39 0.04 93 1015.5
20260503070107 69 296 2.6 5.2 0.04 0.39 0.04 94 1015.8
20260503060110 69 297 1.7 3.5 0.00 0.34 0.00 93 1015.7
20260503055016 69 296 1.7 3.5 0.00 0.34 0.00 93 1015.7
20260503054606 69 306 1.7 2.6 0.00 0.34 0.00 93 1015.8
20260503054023 69 292 0.9 2.6 0.00 0.34 0.00 93 1015.4
20260503053521 70 302 0.9 2.6 0.00 0.34 0.00 93 1015.7
20260503053101 70 310 0.0 2.6 0.00 0.34 0.00 93 1015.8
20260503052522 70 295 0.0 2.6 0.00 0.34 0.00 93 1016.1
20260503052017 70 302 0.9 2.6 0.00 0.34 0.00 93 1016.0
20260503051836 70 273 0.9 2.6 0.00 0.34 0.00 93 1016.1
20260503051020 70 317 0.9 6.1 0.00 0.34 0.00 93 1015.9
20260503050519 70 290 1.7 6.1 0.00 0.34 0.00 93 1016.1
20260503050108 70 292 1.7 3.5 0.00 0.34 0.00 93 1016.2
20260503045521 70 284 0.9 2.6 0.00 0.34 0.00 93 1016.0
20260503045017 70 297 0.0 3.5 0.00 0.34 0.00 93 1016.0
20260503044610 70 284 1.7 3.5 0.00 0.34 0.00 93 1016.0
20260503044017 70 323 0.0 1.7 0.00 0.34 0.00 93 1016.0
20260503043519 70 198 0.0 0.9 0.00 0.34 0.00 93 1015.9
20260503043342 70 198 0.0 1.7 0.00 0.34 0.00 93 1015.9
20260503042525 70 198 0.0 2.6 0.00 0.34 0.00 93 1015.9
20260503042023 70 195 0.0 2.6 0.00 0.34 0.00 93 1016.0
20260503041604 70 189 0.9 2.6 0.00 0.34 0.00 93 1015.9
20260503041026 70 156 0.0 2.6 0.00 0.34 0.00 93 1015.8
20260503040522 70 222 0.9 3.5 0.00 0.34 0.00 93 1015.9
20260503040108 70 165 0.0 3.5 0.00 0.34 0.00 93 1015.6
20260503035522 70 216 0.0 2.6 0.00 0.34 0.34 93 1015.7
20260503035024 70 194 0.0 3.5 0.00 0.34 0.34 93 1015.6
20260503034605 69 204 0.9 3.5 0.00 0.34 0.34 93 1015.5
20260503034023 69 186 0.9 2.6 0.00 0.34 0.34 93 1015.3
20260503033523 69 149 0.9 2.6 0.00 0.34 0.34 93 1015.2
20260503033057 69 173 0.0 1.7 0.00 0.34 0.34 93 1015.0
20260503032519 69 150 0.0 1.7 0.00 0.34 0.34 93 1014.8
20260503032023 69 150 0.0 1.7 0.00 0.34 0.34 93 1014.8
20260503031557 69 150 0.0 2.6 0.00 0.34 0.34 92 1014.8
20260503031035 69 185 0.9 2.6 0.00 0.34 0.34 93 1014.6
20260503030520 69 210 0.0 3.5 0.00 0.34 0.34 93 1014.7
20260503030118 69 184 0.0 3.5 0.00 0.34 0.34 92 1014.5
20260503025521 69 171 1.7 4.3 0.00 0.34 0.34 92 1014.7
20260503025020 69 187 0.9 4.3 0.00 0.34 0.34 92 1014.7
20260503024546 69 164 1.7 4.3 0.00 0.34 0.34 93 1014.8
20260503024021 69 167 1.7 6.1 0.00 0.34 0.34 93 1014.8
20260503023519 69 195 1.7 7.0 0.00 0.34 0.34 93 1014.7
20260503023051 69 202 3.5 7.0 0.00 0.34 0.34 93 1015.0
20260503022520 69 196 0.9 3.5 0.00 0.34 0.34 93 1014.7
20260503022018 69 163 0.9 6.1 0.00 0.34 0.34 93 1015.0
20260503021552 69 182 0.9 6.1 0.00 0.34 0.34 93 1014.8
20260503021018 69 198 0.9 3.5 0.00 0.34 0.34 93 1014.9
20260503020518 69 186 0.9 2.6 0.00 0.34 0.34 93 1014.5
20260503020052 69 203 0.9 4.3 0.00 0.34 0.34 93 1014.4
20260503015515 69 195 0.0 2.6 0.00 0.34 0.34 93 1014.4
20260503015020 69 200 0.9 2.6 0.00 0.34 0.34 93 1014.3
20260503014604 69 180 0.0 1.7 0.00 0.34 0.34 93 1014.3
20260503014017 69 180 0.0 1.7 0.00 0.34 0.34 93 1014.2
20260503013523 69 154 0.0 1.7 0.00 0.34 0.34 93 1014.0
20260503013052 69 154 0.9 1.7 0.00 0.34 0.34 93 1013.9
20260503012518 69 190 0.0 2.6 0.00 0.34 0.34 93 1014.0
20260503012021 69 227 0.9 2.6 0.00 0.34 0.34 93 1013.9
20260503011555 70 212 0.9 3.5 0.00 0.34 0.34 93 1014.0
20260503011017 70 184 0.9 4.3 0.00 0.34 0.34 93 1014.2
20260503010518 70 209 1.7 4.3 0.00 0.34 0.34 93 1014.0
20260503010108 70 180 0.9 3.5 0.00 0.34 0.34 93 1013.9
20260503005522 70 235 0.9 6.1 0.01 0.34 0.34 93 1013.8
20260503005022 70 211 1.7 6.1 0.01 0.34 0.34 93 1013.7
20260503004554 69 173 0.9 5.2 0.01 0.34 0.34 93 1013.9
20260503004019 69 182 1.7 5.2 0.01 0.34 0.34 93 1014.0
20260503003519 69 226 1.7 5.2 0.02 0.34 0.34 93 1013.9
20260503003118 70 224 2.6 6.1 0.02 0.34 0.34 93 1013.7
20260503002519 70 216 0.9 6.1 0.02 0.34 0.34 93 1013.4
20260503002019 70 212 0.9 2.6 0.02 0.34 0.34 93 1012.8
20260503001553 70 234 0.0 5.2 0.02 0.34 0.34 93 1012.2
20260503001021 70 244 1.7 6.1 0.02 0.34 0.34 93 1012.7
20260503000519 70 180 0.9 7.8 0.02 0.34 0.34 93 1011.4
20260503000055 70 95 4.3 7.8 0.03 0.34 0.34 93 1010.8
20260502235518 70 107 4.3 7.8 0.02 0.33 0.33 93 1011.9
20260502235021 70 121 4.3 7.8 0.02 0.33 0.33 93 1012.7
20260502234551 70 117 2.6 4.3 0.02 0.33 0.33 93 1013.1
20260502234022 70 155 1.7 7.8 0.03 0.33 0.33 93 1013.2
20260502233522 70 142 4.3 7.8 0.02 0.32 0.32 93 1012.5
20260502233054 70 153 2.6 7.8 0.02 0.32 0.32 93 1013.0
20260502232519 70 137 3.5 7.8 0.02 0.32 0.32 93 1013.1
20260502232021 70 153 3.5 6.1 0.02 0.32 0.32 93 1012.9
20260502231609 70 91 1.7 9.6 0.02 0.32 0.32 93 1012.7
20260502231031 70 135 4.3 9.6 0.02 0.32 0.32 93 1012.6
20260502230517 70 123 3.5 7.0 0.02 0.32 0.32 92 1013.0
20260502230050 70 122 0.9 3.5 0.01 0.31 0.31 92 1013.0
20260502225518 70 124 0.9 3.5 0.01 0.31 0.31 92 1012.9
20260502225015 70 123 1.7 3.5 0.02 0.31 0.31 92 1012.8
20260502224549 70 173 0.9 2.6 0.02 0.31 0.31 92 1013.2
20260502224016 70 248 0.0 4.3 0.03 0.29 0.29 92 1013.2
20260502223515 70 238 2.6 4.3 0.04 0.29 0.29 92 1013.4
20260502223049 70 181 0.9 2.6 0.04 0.29 0.29 92 1013.2
20260502222515 70 193 0.9 3.5 0.06 0.29 0.29 92 1013.2
20260502222013 70 188 0.9 6.1 0.06 0.29 0.29 92 1013.1
20260502221549 70 163 3.5 7.0 0.07 0.29 0.29 92 1012.8
20260502221016 70 131 2.6 6.1 0.07 0.29 0.29 92 1012.5
20260502220515 70 148 2.6 6.1 0.08 0.29 0.29 92 1012.4
20260502220050 70 150 1.7 7.0 0.08 0.29 0.29 92 1012.7
20260502215520 70 119 3.5 7.0 0.11 0.29 0.29 92 1012.8
20260502215019 70 130 3.5 7.0 0.25 0.29 0.29 92 1012.9
20260502214556 70 123 2.6 4.3 0.28 0.29 0.29 92 1013.0
20260502214017 70 131 0.9 7.0 0.26 0.26 0.26 92 1013.2
20260502213515 70 153 3.5 7.0 0.26 0.26 0.26 92 1013.5
20260502213050 70 144 1.7 4.3 0.25 0.25 0.25 92 1013.3
20260502212517 70 186 0.9 5.2 0.24 0.24 0.24 91 1013.1
20260502212016 70 186 1.7 5.2 0.22 0.22 0.22 91 1013.3
20260502211551 70 212 0.9 4.3 0.22 0.22 0.22 91 1013.0
20260502211015 70 183 0.9 7.0 0.22 0.22 0.22 90 1013.0
20260502210521 70 198 3.5 7.8 0.22 0.22 0.22 90 1012.9
20260502210056 70 250 3.5 11.3 0.21 0.21 0.21 89 1013.0
20260502205516 71 187 5.2 11.3 0.18 0.18 0.18 89 1013.0
20260502205017 72 248 3.5 7.8 0.03 0.03 0.03 88 1013.2
20260502204552 72 234 3.5 9.6 0.01 0.01 0.01 87 1013.1
20260502204017 73 257 5.2 15.6 0.00 0.00 0.00 86 1013.1
20260502203516 74 288 8.7 18.2 0.00 0.00 0.00 83 1013.1
20260502203110 77 282 10.4 18.2 0.00 0.00 0.00 78 1013.1
20260502202516 80 251 8.7 15.6 0.00 0.00 0.00 78 1013.1
20260502202017 81 259 3.5 7.0 0.00 0.00 0.00 77 1012.9
20260502201550 81 254 3.5 7.0 0.00 0.00 0.00 76 1013.1
20260502201018 81 246 2.6 7.8 0.00 0.00 0.00 76 1012.8
20260502200515 81 247 5.2 7.8 0.00 0.00 0.00 75 1013.1
20260502200056 81 246 4.3 7.0 0.00 0.00 0.00 75 1012.9
20260502195517 81 224 2.6 7.0 0.00 0.00 0.00 74 1012.8
20260502195016 81 190 3.5 8.7 0.00 0.00 0.00 73 1012.8
20260502194600 82 252 4.3 9.6 0.00 0.00 0.00 72 1012.7
20260502194017 82 207 5.2 11.3 0.00 0.00 0.00 71 1012.7
20260502193516 82 225 6.1 11.3 0.00 0.00 0.00 71 1012.9
20260502193054 82 231 6.1 10.4 0.00 0.00 0.00 71 1012.9
20260502192517 82 227 3.5 8.7 0.00 0.00 0.00 70 1012.8
20260502192013 82 247 3.5 9.6 0.00 0.00 0.00 70 1012.8
20260502191601 82 238 3.5 9.6 0.00 0.00 0.00 70 1012.9
20260502191015 82 265 3.5 7.0 0.00 0.00 0.00 69 1012.8
20260502190518 83 263 3.5 7.8 0.00 0.00 0.00 69 1012.9
20260502190057 83 217 3.5 10.4 0.00 0.00 0.00 68 1013.0
20260502185516 83 244 4.3 10.4 0.00 0.00 0.00 67 1013.1
20260502185016 83 217 5.2 10.4 0.00 0.00 0.00 67 1013.0
20260502184549 83 231 4.3 10.4 0.00 0.00 0.00 67 1013.2
20260502184017 84 193 4.3 10.4 0.00 0.00 0.00 67 1013.1
20260502183531 84 242 7.0 13.9 0.00 0.00 0.00 66 1013.1
20260502183053 84 244 7.0 13.9 0.00 0.00 0.00 66 1012.8
20260502182517 84 254 5.2 13.0 0.00 0.00 0.00 66 1013.0
20260502182021 85 209 7.8 13.0 0.00 0.00 0.00 66 1013.1
20260502181607 85 298 4.3 13.9 0.00 0.00 0.00 67 1013.3
20260502181023 84 254 1.7 13.9 0.00 0.00 0.00 68 1013.1
20260502180736 84 215 5.2 10.4 0.00 0.00 0.00 67 1013.2
20260502170114 86 173 4.3 14.8 0.00 0.00 0.00 67 1013.5
20260502164018 86 207 6.1 13.9 0.00 0.00 0.00 67 1013.3
20260502163519 86 161 7.8 15.6 0.00 0.00 0.00 66 1013.2
20260502163055 85 219 4.3 15.6 0.00 0.00 0.00 69 1013.3
20260502162517 85 155 5.2 14.8 0.00 0.00 0.00 68 1013.5
20260502162019 86 188 9.6 14.8 0.00 0.00 0.00 67 1013.4
20260502161601 86 239 3.5 13.9 0.00 0.00 0.00 68 1013.5
20260502161017 85 235 7.0 13.9 0.00 0.00 0.00 68 1013.4
20260502160520 85 138 4.3 13.0 0.00 0.00 0.00 69 1013.4
20260502152017 82 172 4.3 9.6 0.00 0.00 0.00 75 1013.4
20260502151607 82 163 3.5 11.3 0.00 0.00 0.00 75 1013.5
20260502151019 82 157 4.3 8.7 0.00 0.00 0.00 74 1013.5
20260502150519 83 208 4.3 11.3 0.00 0.00 0.00 75 1013.5
20260502150114 82 184 3.5 11.3 0.00 0.00 0.00 74 1013.6
20260502140111 79 265 3.5 10.4 0.00 0.00 0.00 83 1013.4
20260502130530 73 126 3.5 7.8 0.00 0.00 0.00 89 1012.8
20260502123516 70 132 5.2 9.6 0.00 0.00 0.00 92 1012.3
20260502123058 70 134 7.0 9.6 0.00 0.00 0.00 92 1012.2
20260502122516 69 157 5.2 7.0 0.00 0.00 0.00 93 1012.1
20260502122019 69 130 3.5 7.0 0.00 0.00 0.00 94 1012.0
20260502121551 68 129 4.3 7.0 0.00 0.00 0.00 94 1012.1
20260502121022 68 142 3.5 7.0 0.00 0.00 0.00 94 1012.4
20260502120521 68 132 3.5 6.1 0.00 0.00 0.00 94 1012.2
20260502120326 68 134 2.6 6.1 0.00 0.00 0.00 94 1012.5
20260502115517 68 121 2.6 7.0 0.00 0.00 0.00 94 1012.3
20260502115016 67 119 1.7 7.0 0.00 0.00 0.00 94 1012.5
20260502114554 67 126 2.6 5.2 0.00 0.00 0.00 94 1012.1
20260502114017 67 130 2.6 5.2 0.00 0.00 0.00 94 1012.3
20260502113515 67 148 2.6 7.0 0.00 0.00 0.00 94 1012.2
20260502113059 67 157 3.5 7.0 0.00 0.00 0.00 94 1012.2
20260502112518 67 118 3.5 7.8 0.00 0.00 0.00 94 1012.0
20260502112019 67 127 3.5 7.8 0.00 0.00 0.00 94 1012.0
20260502111551 67 123 4.3 7.0 0.00 0.00 0.00 94 1011.9
20260502111015 67 135 2.6 6.1 0.00 0.00 0.00 94 1011.9
20260502110516 67 138 1.7 4.3 0.00 0.00 0.00 94 1011.9
20260502105522 67 129 1.7 5.2 0.00 0.00 0.00 94 1011.9
20260502105015 67 128 2.6 6.1 0.00 0.00 0.00 94 1011.7
20260502104941 67 119 2.6 6.1 0.00 0.00 0.00 94 1011.8
20260502104014 67 125 2.6 6.1 0.00 0.00 0.00 94 1011.8
20260502103512 67 151 2.6 7.0 0.00 0.00 0.00 94 1011.6
20260502103037 67 135 4.3 7.0 0.00 0.00 0.00 94 1011.5
20260502102513 67 146 4.3 7.0 0.00 0.00 0.00 94 1011.5
20260502102014 67 135 2.6 6.1 0.00 0.00 0.00 94 1011.4
20260502101538 67 140 2.6 5.2 0.00 0.00 0.00 94 1011.5
20260502101011 67 139 1.7 3.5 0.00 0.00 0.00 94 1011.5
20260502100513 67 126 0.9 2.6 0.00 0.00 0.00 93 1011.7
20260502091013 65 182 0.0 0.0 0.00 0.00 0.00 93 1012.2
20260502090513 66 182 0.0 0.9 0.00 0.00 0.00 94 1012.2